Home   Weather   Bregenz   Past weeks
Flag for Austria

Past Weather in Bregenz, Vorarlberg, Austria — Yesterday and Last 2 Weeks

Now
22 °F

Cold.


Feels Like: 22 °F
Forecast: 35 / 25 °F
Wind: 1 mph from Southeast

Location: Bregenz

Current Time: Jan 20, 2019 at 10:17:26 am

Latest Report: Jan 20, 2019 at 8:00 am


Visibility: N/A

Pressure: 30.00 "Hg

Humidity: 90%

Dew Point: 19 °F

Location of BregenzLocation

Past Weather in Bregenz — Graph

°F

Bregenz Temperature Yesterday

Maximum temperature yesterday: 31 °F (at 2:00 pm)
Minimum temperature yesterday: 20 °F (at 7:00 am)
Average temperature yesterday: 25 °F

High & Low Weather Summary for the Past Weeks

 TemperatureHumidityPressure
High44 °F (Jan 17, 12:00 pm)100% (Jan 7, 1:00 am)30.58 "Hg (Jan 7, 1:00 am)
Low20 °F (Jan 19, 7:00 am)49% (Jan 18, 1:00 pm)29.73 "Hg (Jan 13, 11:00 pm)
Average34 °F86%30.18 "Hg
* Reported Jan 5 8:00 am — Jan 20 8:00 am, Bregenz. Weather by CustomWeather, © 2019

Note: Actual official high and low records may vary slightly from our data, if they occured in-between our weather recording intervals... More about our weather records

Advertising

Bregenz Weather History for the Previous 24 Hours

Scroll right to see more
 ConditionsComfort  
Time TempWeatherWind HumidityBarometerVisibility
8:00 am
Sun, Jan 20
22 °FCold.1 mph90%30.00 "HgN/A
7:00 am21 °FCold.No wind92%30.00 "HgN/A
6:00 am21 °FCold.1 mph89%29.99 "HgN/A
4:00 am22 °FCold.1 mph87%30.00 "HgN/A
3:00 am21 °FCold.1 mph89%29.99 "HgN/A
1:00 am21 °FCold.No wind89%30.00 "HgN/A
12:00 am21 °FCold.1 mph87%30.00 "HgN/A
11:00 pm
Sat, Jan 19
22 °FCold.1 mph87%30.00 "HgN/A
10:00 pm23 °FCold.1 mph88%30.00 "HgN/A
9:00 pm23 °FCold.1 mph89%30.00 "HgN/A
8:00 pm24 °FCold.1 mph89%30.00 "HgN/A
7:00 pm25 °FCold.1 mph87%30.00 "HgN/A
6:00 pm26 °FChilly.1 mph84%30.00 "HgN/A
5:00 pm28 °FChilly.1 mph79%29.99 "HgN/A
4:00 pm31 °FChilly.1 mph73%29.99 "HgN/A
2:00 pm31 °FChilly.1 mph65%30.02 "HgN/A
1:00 pm30 °FChilly.1 mph66%30.04 "HgN/A
12:00 pm30 °FChilly.1 mph66%30.06 "HgN/A
11:00 am28 °FChilly.No wind75%30.08 "HgN/A
10:00 am23 °FCold.No wind82%30.09 "HgN/A
Weather by CustomWeather, © 2019

See weather overview